Location: Chillicothe
(39.7950°N, 93.5520°W)
Time: 04:53:09
(UTC-06:00)

BEESAT - Pass Details

Date: 24 November 2019
Orbit: 700 x 709 km, 98.6° (Epoch: 10 December)

Event Time Altitude Azimuth Distance (km) Brightness Sun altitude
Rises 04:39:24 0° 159° (SSE) 3,073 ? -28.3°
Reaches altitude 10° 04:41:39 10° 157° (SSE) 2,159 ? -27.9°
Maximum altitude 04:46:21 70° 74° (ENE) 746 ? -27.0°
Enters shadow 04:46:52 64° 31° (NNE) 779 ? -26.9°
